Probability
0 0 0 0 0 0 0 0 0 0 0 0 0 0 1 2 3 6 12 15 15 13 12 15 16 13 12 13 13 11 8 7 9 11 11 9 7 5 3 2 2 3 3 2
0 0 0 0 0 0 0 0 0 0 0 0 0 0 0 1 3 6 11 14 14 13 13 15 16 13 10 9 9 9 8 8 9 10 11 10 8 5 3 2 2 3 3 3
0 0 0 0 0 0 0 0 0 0 0 0 0 0 0 1 2 5 8 11 13 12 13 15 16 12 8 5 4 5 7 8 9 9 9 9 9 6 3 2 3 3 3 3
0 0 0 0 0 0 0 0 0 0 0 0 0 0 0 1 2 4 5 8 10 11 13 15 15 12 8 4 2 3 5 7 7 7 7 8 8 8 5 3 3 3 3 3
0 0 0 0 0 0 0 0 0 0 0 0 0 0 0 1 2 3 4 5 8 10 13 15 15 13 9 5 2 2 4 6 6 6 6 7 7 8 6 4 3 3 3 3
0 0 0 0 0 0 0 0 0 0 0 0 0 0 0 1 2 3 3 5 7 9 11 15 16 13 9 5 2 2 4 6 6 6 6 6 6 6 6 4 3 3 3 3
0 0 0 0 0 0 0 0 0 0 0 0 0 0 0 0 1 2 3 4 7 9 11 14 16 14 10 6 3 2 3 4 5 5 5 5 4 4 5 4 3 3 2 1
0 0 0 0 0 0 0 0 0 0 0 0 0 0 0 0 0 1 3 4 5 8 11 14 16 15 12 7 3 1 1 2 4 4 4 4 3 3 4 3 3 2 1 0
0 0 0 0 0 0 0 0 0 0 0 0 0 0 0 0 0 1 2 3 4 5 9 12 14 14 12 9 5 2 0 1 2 3 3 3 3 3 3 3 3 2 1 1
0 0 0 0 0 0 0 0 0 0 0 0 0 0 0 0 0 1 2 3 3 4 6 10 12 13 12 9 6 2 0 0 1 1 2 3 3 3 3 3 3 3 3 2
0 0 0 0 0 0 0 0 0 0 0 0 0 0 0 0 0 1 2 3 3 3 4 7 9 10 9 7 5 2 0 0 0 0 1 2 3 3 3 3 3 3 3 3
0 0 0 0 0 0 0 0 0 0 0 0 0 0 0 0 0 0 1 2 3 3 3 4 6 6 5 4 3 1 0 0 0 0 0 1 1 2 3 3 3 3 3 3
0 0 0 0 0 0 0 0 0 0 0 0 0 0 0 0 0 0 0 1 3 3 3 3 4 3 3 3 2 1 1 0 0 0 0 0 0 1 1 2 2 2 2 2
0 0 0 0 0 0 0 0 0 0 0 0 0 0 0 0 0 0 0 1 2 3 3 3 3 3 3 2 2 2 2 1 0 0 0 0 0 0 0 1 1 1 1 1
0 0 0 0 0 0 0 0 0 0 0 0 0 0 0 0 0 0 0 1 2 3 3 3 3 3 3 3 3 3 3 1 0 0 0 0 0 0 0 0 0 0 0 0
0 0 0 0 0 0 0 0 0 0 0 0 0 0 0 0 0 0 0 1 2 3 3 3 3 3 3 3 3 3 3 2 1 0 0 0 0 0 0 0 0 0 0 0
0 0 0 0 0 0 0 0 0 0 0 0 0 0 0 0 0 0 0 1 2 2 2 2 2 2 3 3 3 3 3 2 1 0 0 0 0 0 0 0 0 0 0 0
0 0 0 0 0 0 0 0 0 0 0 0 0 0 0 0 0 0 0 0 1 1 1 1 1 1 1 2 2 2 2 2 1 0 0 0 0 0 0 0 0 0 0 0
0 0 0 0 0 0 0 0 0 0 0 0 0 0 0 0 0 0 0 0 0 0 0 0 0 0 0 1 1 1 1 1 0 0 0 0 0 0 0 0 0 0 0 0
0 0 0 0 0 0 0 0 0 0 0 0 0 0 0 0 0 0 0 0 0 0 0 0 0 0 0 0 0 0 0 0 0 0 0 0 0 0 0 0 0 0 0 0
0 0 0 0 0 0 0 0 0 0 0 0 0 0 0 0 0 0 0 0 0 0 0 0 0 0 0 0 0 0 0 0 0 0 0 0 0 0 0 0 0 0 0 0
0 0 0 0 0 0 0 0 0 0 0 0 0 0 0 0 0 0 0 0 0 0 0 0 0 0 0 0 0 0 0 0 0 0 0 0 0 0 0 0 0 0 0 0
0 0 0 0 0 0 0 0 0 0 0 0 0 0 0 0 0 0 0 0 0 0 0 0 0 0 0 0 0 0 0 0 0 0 0 0 0 0 0 0 0 0 0 0
0 0 0 0 0 0 0 0 0 0 0 0 0 0 0 0 0 0 0 0 0 0 0 0 0 0 0 0 0 0 0 0 0 0 0 0 0 0 0 0 0 0 0 0
0 0 0 0 0 0 0 0 0 0 0 0 0 0 0 0 0 0 0 0 0 0 0 0 0 0 0 0 0 0 0 0 0 0 0 0 0 0 0 0 0 0 0 0
0 0 0 0 0 0 0 0 0 0 0 0 0 0 0 0 0 0 0 0 0 0 0 0 0 0 0 0 0 0 0 0 0 0 0 0 0 0 0 0 0 0 0 0
Wind_Speed
1 2 1 4 4 4 3 3 4 5 4 3 5 7 6 4 3 4 4 4 4 3 2 2 2 2 3 3 3 5 6 5 5 4 4 3 3 3 2 2 4 5 5 5
2 2 5 3 3 3 3 3 4 4 3 3 4 6 6 4 4 5 5 4 3 1 1 1 2 2 2 3 3 5 6 5 4 4 4 3 3 2 2 2 2 4 4 4
2 3 3 1 1 2 3 4 4 4 5 3 2 5 5 4 3 2 2 3 3 3 3 3 2 2 2 2 2 3 5 6 4 4 4 4 2 2 2 1 1 2 4 4
2 3 1 1 3 3 5 5 5 3 2 3 1 4 5 4 3 2 2 2 2 2 2 2 3 2 2 2 2 2 3 5 4 4 5 7 5 4 3 3 2 1 2 4
2 2 1 3 4 3 5 4 4 3 3 3 1 3 6 2 4 4 3 3 3 2 3 2 3 3 2 1 2 2 3 4 4 5 5 5 4 3 2 3 3 2 1 2
3 2 2 3 3 3 3 1 1 2 1 3 4 4 5 4 5 4 3 2 2 2 2 2 2 2 1 0 0 1 2 3 3 4 5 5 5 5 4 3 4 3 2 2
5 3 2 1 2 3 3 3 2 2 1 5 2 3 6 4 3 4 3 2 2 2 2 2 2 1 1 1 1 1 2 3 3 4 4 4 5 5 7 6 4 4 3 2
3 5 3 2 0 1 1 3 4 3 3 3 1 4 5 3 1 1 1 1 1 1 1 2 2 2 1 1 1 1 2 3 3 3 3 3 4 3 3 3 3 4 3 3
0 5 4 3 2 2 1 1 3 2 0 1 3 3 4 2 2 2 1 1 1 2 1 1 1 1 2 2 2 3 3 2 2 3 3 3 3 3 2 2 2 2 2 2
1 4 5 4 3 2 1 2 2 2 1 2 3 3 3 3 2 1 1 1 2 2 2 2 2 1 2 1 1 1 2 2 2 2 2 2 2 2 2 2 3 2 2 2
1 1 5 3 1 2 1 1 1 2 2 3 3 5 2 2 2 2 2 2 2 2 2 2 2 1 0 0 1 0 1 1 1 1 1 1 2 2 2 3 3 3 2 2
1 2 3 5 4 2 2 2 2 2 3 2 2 6 2 1 2 2 2 2 2 2 1 1 0 1 2 1 1 1 0 1 1 1 1 1 1 2 2 2 2 3 2 2
1 3 2 5 4 3 1 1 0 1 2 2 3 6 2 2 3 3 3 3 3 2 2 2 2 2 2 2 2 1 1 0 0 1 2 1 1 1 2 2 2 2 2 2
2 2 4 6 5 2 4 3 1 2 2 3 6 7 5 4 4 5 4 4 3 2 2 2 2 2 2 2 2 2 2 1 1 1 1 1 1 1 1 1 2 2 2 2
3 1 3 5 5 4 4 5 4 5 6 6 7 6 7 4 3 4 4 3 4 4 4 3 2 2 2 3 3 3 3 2 1 1 1 1 1 1 2 2 2 2 2 1
2 1 2 5 4 3 5 6 6 6 5 6 6 8 6 4 2 3 4 3 3 3 3 3 3 3 2 3 3 3 2 2 2 1 1 1 1 2 2 2 2 2 2 1
1 1 1 4 5 4 6 6 6 4 4 4 7 8 3 3 4 3 3 3 1 2 2 2 2 2 2 3 3 2 2 2 2 1 1 1 2 2 2 2 2 2 2 2
3 2 1 2 4 4 6 1 2 3 4 4 4 4 2 3 3 3 2 1 2 2 2 3 3 3 3 3 3 3 2 2 2 2 1 1 2 2 2 2 2 2 1 2
3 4 2 1 2 8 7 2 2 3 6 4 5 5 3 2 2 3 2 1 1 2 2 2 2 2 3 3 3 3 3 3 2 2 2 1 1 2 2 2 1 1 1 1
2 3 3 2 2 7 5 2 1 1 5 4 3 4 3 1 1 4 2 2 2 2 2 2 2 2 2 3 3 3 3 3 3 2 1 1 1 1 1 1 1 1 1 1
1 1 3 3 5 9 5 2 2 2 7 3 3 4 2 3 4 3 2 2 2 2 3 3 2 2 3 3 2 2 3 3 3 2 2 1 1 1 1 1 1 1 1 1
6 5 5 4 5 10 2 4 5 7 2 2 3 3 3 3 3 2 2 2 2 2 3 3 2 3 3 3 2 2 3 3 2 2 2 2 1 1 1 1 1 1 1 1
7 8 6 9 9 4 4 6 4 2 3 3 3 3 3 3 3 2 2 2 2 2 2 2 2 3 3 3 2 2 3 2 2 1 1 1 1 1 1 1 1 1 1 1
4 3 3 5 9 6 6 5 4 3 4 3 3 3 3 3 3 3 2 2 2 2 2 2 2 2 3 3 3 2 3 2 1 1 1 1 1 1 1 0 0 1 1 1
6 5 4 6 7 5 6 7 6 4 3 3 2 3 4 4 3 3 3 3 2 2 2 1 1 2 3 3 3 3 2 1 1 1 0 0 0 0 0 1 0 0 1 2
7 8 8 9 7 6 6 5 5 4 5 4 3 2 2 3 3 3 3 2 2 2 2 1 2 2 3 3 3 3 2 1 1 1 0 0 0 0 0 0 1 2 1 1
Wind_Direction
30 76 220 223 214 221 212 228 252 258 284 284 253 259 269 249 228 214 206 206 208 205 201 157 137 134 139 145 137 153 155 160 156 152 152 159 167 166 153 165 158 154 155 152
40 263 254 229 224 222 227 257 273 282 282 282 266 266 271 254 226 215 203 212 212 198 163 154 133 129 144 161 157 161 167 169 174 172 165 165 159 155 150 136 142 153 154 156
205 268 261 223 217 197 245 232 247 261 306 284 266 280 272 274 263 234 221 213 200 194 190 182 164 155 155 160 175 173 176 170 173 156 130 117 100 98 97 118 149 166 162 158
269 287 303 232 246 204 252 243 242 248 277 273 196 251 263 258 263 259 262 238 206 206 184 168 165 164 165 182 186 171 158 158 159 154 156 156 160 169 179 179 175 144 160 159
273 275 268 246 250 223 242 258 240 241 232 274 252 217 269 256 245 250 244 225 213 196 167 163 165 174 185 187 169 169 158 154 157 158 166 167 165 166 150 150 153 148 152 163
283 261 238 253 274 248 268 321 9 17 75 259 231 196 261 241 228 231 229 217 222 202 179 176 155 134 119 70 106 140 157 164 157 152 166 172 171 163 153 164 172 170 164 172
334 319 320 343 2 356 35 72 33 352 333 247 225 199 245 249 226 205 200 217 227 201 182 174 149 144 141 146 146 151 166 173 168 164 169 171 174 175 174 177 182 177 176 184
355 314 309 349 219 216 266 141 159 205 224 272 273 224 248 272 231 161 174 185 223 212 210 196 183 186 204 202 179 171 175 182 177 175 176 177 175 176 181 180 179 186 193 197
341 289 309 321 310 147 121 187 194 154 283 269 264 278 298 1 29 37 36 33 328 272 254 227 205 210 223 211 202 198 188 183 185 182 172 170 172 172 175 173 165 174 184 181
177 279 296 308 7 10 161 157 93 122 157 266 281 265 270 315 318 318 276 259 277 296 304 291 238 219 232 220 228 214 186 189 185 174 177 168 170 165 159 155 169 170 178 176
81 214 310 354 8 282 14 54 105 142 172 184 246 265 249 258 287 272 274 283 291 294 275 267 260 239 243 352 253 185 142 158 160 162 154 155 157 154 153 163 173 163 164 175
74 124 278 270 268 252 190 184 158 165 237 210 211 268 316 319 309 304 306 316 319 307 279 261 328 51 43 25 16 42 58 158 178 163 155 167 156 149 159 171 172 164 169 180
113 110 4 339 335 351 351 293 203 140 145 195 201 260 328 14 0 348 348 349 340 353 18 33 44 45 35 14 12 17 8 14 138 141 147 144 140 152 173 181 171 166 167 170
104 129 180 210 235 241 279 288 266 137 192 234 233 254 289 325 334 334 343 345 348 12 34 47 42 36 28 17 8 7 9 13 48 104 127 141 156 173 168 153 161 166 161 166
89 187 258 266 271 255 252 267 250 218 218 221 252 256 272 292 300 311 322 341 3 17 24 29 28 20 23 17 14 12 11 9 27 82 112 134 118 115 115 119 132 131 131 148
71 159 320 300 298 278 271 271 250 242 239 242 262 273 277 301 330 332 330 344 4 7 11 17 16 15 16 7 357 358 359 360 20 52 86 87 98 102 109 117 116 120 120 122
122 118 33 288 319 343 283 255 223 223 227 213 238 254 290 321 319 316 314 328 355 353 356 3 360 358 354 343 339 339 339 3 24 34 55 72 87 90 100 105 104 113 125 120
151 131 159 302 7 261 253 255 213 227 249 236 251 277 278 270 294 311 312 319 356 357 356 351 352 351 353 353 349 346 357 15 22 21 32 52 90 98 99 104 113 122 120 128
156 149 145 149 277 280 290 266 201 215 274 248 238 265 283 313 350 332 337 14 348 342 339 337 337 340 355 354 352 359 6 8 16 17 16 26 93 114 115 118 124 117 116 109
93 112 135 156 223 253 262 286 291 105 281 259 232 250 268 351 309 284 322 360 348 345 341 337 341 360 2 346 356 15 5 5 359 349 344 18 94 126 138 149 143 124 119 119
151 144 181 200 237 264 258 278 103 165 256 275 234 240 240 229 233 261 299 321 328 330 329 338 351 1 348 342 5 15 0 345 333 345 1 31 68 109 128 122 127 128 117 108
181 181 195 177 216 256 224 144 191 223 256 246 246 244 232 241 260 271 274 284 309 319 328 337 349 349 348 350 3 1 346 329 344 6 13 17 37 84 103 108 96 108 125 127
203 195 190 198 218 246 198 213 233 210 224 243 242 251 235 242 246 258 266 271 291 302 316 331 339 341 346 348 356 343 327 333 355 20 18 17 23 49 95 136 149 150 154 163
244 191 199 246 256 251 247 252 253 230 229 239 234 236 221 226 237 256 270 276 284 300 307 318 333 334 334 338 343 325 321 335 358 10 18 36 59 50 33 36 163 172 181 192
223 182 207 250 267 288 265 241 239 239 242 244 244 232 216 212 234 240 252 266 274 286 298 307 308 311 315 327 331 328 326 333 349 341 343 347 40 94 51 10 293 236 231 217
198 187 190 225 221 208 241 235 221 223 238 235 228 240 235 209 226 231 237 250 255 266 273 283 296 302 310 319 319 318 319 311 306 312 299 272 234 166 153 130 31 7 311 277